This is the latest recevied weather packets stored in our database for station/object 4S6DRJ-13. If no packets are shown the sender has not sent any weather packets the latest 1 day(s).
| Time | Temp. | Humidity | Pressure | Rain* | Wind** | Luminosity | Snow |
|---|---|---|---|---|---|---|---|
| 1778116259 | 25.56° C | 94% | 1004.3 hPa | 0 mm | 0 m/s | 79 W/m² | - |
| 1778116198 | 25.56° C | 94% | 1004.2 hPa | 0.25 mm | 0 m/s | 78 W/m² | - |
| 1778116137 | 25.56° C | 94% | 1004.1 hPa | 0.25 mm | 0 m/s | 76 W/m² | - |
| 1778116076 | 25.56° C | 94% | 1004.4 hPa | 0.25 mm | 0.89 m/s, 89° | 74 W/m² | - |
| 1778116014 | 25.56° C | 94% | 1004.2 hPa | 0.25 mm | 0 m/s | 72 W/m² | - |
| 1778115954 | 25.56° C | 94% | 1004.3 hPa | 0.25 mm | 0.89 m/s, 116° | 71 W/m² | - |
| 1778115832 | 25.56° C | 94% | 1004.2 hPa | 0.25 mm | 1.34 m/s, 104° | 66 W/m² | - |
| 1778115710 | 25.56° C | 94% | 1004.3 hPa | 0.25 mm | 1.79 m/s, 108° | 61 W/m² | - |
| 1778115588 | 25.56° C | 94% | 1004.2 hPa | 0.25 mm | 0.89 m/s, 138° | 56 W/m² | - |
| 1778115161 | 25.56° C | 94% | 1004.4 hPa | 0.25 mm | 0.89 m/s, 94° | 40 W/m² | - |
| 1778115100 | 25.56° C | 94% | 1004.2 hPa | 0.25 mm | 1.34 m/s, 176° | 37 W/m² | - |
| 1778114977 | 25.56° C | 94% | 1004.1 hPa | 0.25 mm | 1.34 m/s, 112° | 32 W/m² | - |
| 1778114856 | 25.56° C | 94% | 1004.5 hPa | 0.25 mm | 0.89 m/s, 131° | 28 W/m² | - |
| 1778114612 | 25.56° C | 94% | 1004.4 hPa | 0.25 mm | 0.45 m/s, 147° | 18 W/m² | - |
| 1778114551 | 25.56° C | 94% | 1004.3 hPa | 0.25 mm | 0.45 m/s, 87° | 17 W/m² | - |
| 1778114490 | 25.56° C | 94% | 1004.2 hPa | 0.25 mm | 0 m/s | 15 W/m² | - |
| 1778113940 | 25.56° C | 94% | 1004 hPa | 0.25 mm | 0.89 m/s, 128° | 6 W/m² | - |
| 1778113879 | 25.56° C | 94% | 1004 hPa | 0.25 mm | 0.45 m/s, 111° | 5 W/m² | - |
| 1778113818 | 25.56° C | 94% | 1004.1 hPa | 0.25 mm | 0.45 m/s, 126° | 5 W/m² | - |
| 1778113757 | 25.56° C | 94% | 1004.1 hPa | 0.25 mm | 0.89 m/s, 89° | 4 W/m² | - |
| 1778113696 | 25.56° C | 94% | 1004.1 hPa | 0.25 mm | 0.45 m/s, 99° | 3 W/m² | - |
| 1778113635 | 25.56° C | 94% | 1004 hPa | 0.25 mm | 0.89 m/s, 133° | 3 W/m² | - |
| 1778113574 | 25.56° C | 94% | 1004.1 hPa | 0.25 mm | 0.45 m/s, 84° | 3 W/m² | - |
| 1778113514 | 25.56° C | 94% | 1003.8 hPa | 0.25 mm | 0.45 m/s, 126° | 2 W/m² | - |
| 1778113452 | 25.56° C | 94% | 1003.8 hPa | 0.25 mm | 0 m/s | 2 W/m² | - |
* Rain latest hour (hover to see other rain measurements)
** Current wind speed in m/s (hover to see current wind gust speed)